Flag for U.S.A. Weather past 2 weeks in Springfield, Massachusetts, U.S.A.

Now
53 °F

Overcast.


Feels Like: 47 °F
Forecast: 46 / 55 °F
Wind: 22 mph from Northwest

Location: Barnes Municipal Airport

Current Time: Oct 24, 2014 at 4:35:09 PM

Latest Report: Oct 24, 2014 at 3:53 PM


Visibility: 10 mi

Pressure: 29.74 "Hg

Humidity: 61%

Dew point: 40 °F

Location of SpringfieldLocation

Historic Weather in Springfield — Graph

°F

Springfield temperature yesterday

Maximum temperature yesterday: 53 °F (at 12:53 PM)
Minimum temperature yesterday: 49 °F (at 12:02 AM)
Average temperature yesterday: 51 °F

Past Weeks' High & Low Weather Summary

 TemperatureHumidityPressure
High78 °F (Oct 15, 1:53 PM)97% (Oct 9, 9:53 PM)30.36 "Hg (Oct 9, 9:53 PM)
Low31 °F (Oct 20, 3:53 AM)36% (Oct 9, 2:53 PM)29.51 "Hg (Oct 18, 2:53 PM)
Average54 °F79%29.95 "Hg
* Reported Oct 9 2:53 PM — Oct 24 2:53 PM, Springfield, Weather by CustomWeather, © 2014

Note: Actual official high and low records may vary slightly from our data, if they occured in-between our weather recording intervals... More about our weather records

Advertising

Springfield weather history for previous 24 hours

 ConditionsComfort  
Time TempWeatherWind HumidityBarometerVisibility
2:53 PM
Oct 24
53 °FOvercast.24 mph61%29.74 "Hg10 mi
1:53 PM54 °FOvercast.16 mph62%29.73 "Hg10 mi
12:53 PM56 °FPartly sunny.18 mph58%29.75 "Hg10 mi
11:53 AM54 °FMostly cloudy.16 mph62%29.77 "Hg10 mi
10:53 AM52 °FMostly cloudy.13 mph69%29.77 "Hg10 mi
9:53 AM50 °FOvercast.9 mph77%29.77 "Hg10 mi
9:01 AM49 °FMostly cloudy.8 mph80%29.76 "Hg10 mi
8:53 AM48 °FMore clouds than sun.9 mph86%29.77 "Hg10 mi
7:53 AM47 °FLight rain. Mostly cloudy.7 mph86%29.76 "Hg10 mi
6:53 AM47 °FLight rain. Fog.12 mph86%29.76 "Hg5 mi
5:53 AM49 °FLight rain. Mostly cloudy.12 mph77%29.75 "Hg10 mi
4:53 AM49 °FOvercast.10 mph80%29.73 "Hg10 mi
3:53 AM49 °FMostly cloudy.10 mph84%29.73 "Hg10 mi
2:53 AM50 °FLight rain. Mostly cloudy.12 mph83%29.73 "Hg10 mi
1:53 AM51 °FMostly cloudy.10 mph80%29.73 "Hg10 mi
12:53 AM51 °FOvercast.8 mph83%29.72 "Hg10 mi
11:53 PM
Oct 23
51 °FLight rain. Overcast.9 mph86%29.73 "Hg10 mi
10:53 PM52 °FOvercast.5 mph80%29.73 "Hg10 mi
9:53 PM51 °FOvercast.8 mph86%29.74 "Hg10 mi
8:53 PM51 °FLight rain. Overcast.12 mph86%29.74 "Hg10 mi
7:53 PM51 °FLight rain. Mostly cloudy.12 mph86%29.73 "Hg10 mi
6:53 PM52 °FMostly cloudy.18 mph83%29.72 "Hg10 mi
5:53 PM52 °FLight rain. Overcast.18 mph83%29.69 "Hg10 mi
4:53 PM53 °FOvercast.16 mph80%29.69 "Hg10 mi
Weather by CustomWeather, © 2014

See weather overviewHow to use our weather pages